Skip Page Navigation
NASA JPL Caltech
NASA Logo - Jet Propulsion Laboratory + View the NASA Portal
+ Center for Near-Earth Object Studies
JPL Home Earth Solar System Stars & Galaxies Technology
JPL Solar System Dynamics
BODIES ORBITS EPHEMERIDES TOOLS PHYSICAL DATA DISCOVERY FAQ SITE MAP
JPL Small-Body Database Browser
Search: [ help ]  
382309 (2013 PA34)
Classification: Outer Main-belt Asteroid          SPK-ID: 2382309
Ephemeris | Orbit Diagram | Orbital Elements | Mission Design | Physical Parameters | Discovery Circumstances | Close-Approach Data ]

[ hide orbit diagram ]

For accurate long-term ephemerides, please instead use our Horizons system.This orbit viewer was implemented using two-body methods, and hence should not be used for determining accurate long-term trajectories (over several years or decades) or planetary encounter circumstances.


[ revert to old Java-based viewer ]

Orbital Elements at Epoch 2459000.5 (2020-May-31.0) TDB
Reference: JPL 22 (heliocentric ecliptic J2000)
 Element Value Uncertainty (1-sigma)   Units 
e .2013892929717454 5.2295e-08  
a 3.26960111939594 4.6103e-08 au
q 2.611138461661165 1.782e-07 au
i 16.00366984307858 6.0171e-06 deg
node 193.787434307263 1.7735e-05 deg
peri 154.5344931704677 2.2426e-05 deg
M 41.93886844450282 1.1212e-05 deg
tp 2458748.932348904334
(2019-Sep-22.43234890)
6.8438e-05 TDB
period 2159.437241714867
5.91
4.5674e-05
1.25e-07
d
yr
n .1667101006899901 3.5261e-09 deg/d
Q 3.928063777130716 5.5388e-08 au
  Orbit Determination Parameters
   # obs. used (total)      300  
   data-arc span      6718 days (18.39 yr)  
   first obs. used      2001-06-30  
   last obs. used      2019-11-21  
   planetary ephem.      DE431  
   SB-pert. ephem.      SB431-N16  
   condition code      0  
   norm. resid. RMS      .52954  
   source      ORB  
   producer      Otto Matic  
   solution date      2019-Dec-14 21:17:07  

Additional Information
 Earth MOID = 1.61563 au 
 Jupiter MOID = 1.60009 au 
 T_jup = 3.084 
[ show covariance matrix ]

Ephemeris | Orbit Diagram | Orbital Elements | Mission Design | Physical Parameters | Discovery Circumstances | Close-Approach Data ]

Physical Parameter Table
Parameter Symbol Value Units Sigma Reference Notes
absolute magnitude H 15.2   n/a MPO494953  

382309 (2013 PA34)          Discovered 2007-Sep-27 by Mt. Lemmon Survey at Mount Lemmon
Reference: Last Updated: 2013-12-19

[ show close-approach data ]
Ephemeris | Orbit Diagram | Orbital Elements | Mission Design | Physical Parameters | Discovery Circumstances | Close-Approach Data ]
ABOUT SSD CREDITS/AWARDS PRIVACY/COPYRIGHT GLOSSARY LINKS
FirstGov 2020-Jul-07 01:01 UT
(server date/time)  
NASA Home Page
Site Manager:   Ryan S. Park
Webmaster  Alan B. Chamberlin